www.pogodaiklimat.ru

Погода и климат >> Архив погоды >> Сейшелы >> Сейшелы


АРХИВ ПОГОДЫ на Сейшелах

Время (UTC), дата Ветер
(напр.,м/с)
 
Видим.   Явления Облачность Т
(С)
Тd
(С)
f
(%)
Тe
(С)
Тes
(С)
Комфортность P
(гПа)
Po
(гПа)
Тmin
(С)
Tmax
(С)
R
(мм)
R24
(мм)
S
(см)
00 12.09 ЮВ 8
{14}
30 км 5/4 360 м
[Cu Sc Ci fib]
+26.0 +23.7 87 +35 +35 очень
душно
1012.4 1012.1
03 12.09 ЮВ 7
{11}
20 км 9/6 420 м
[Cu Sc Ac und Ci fib]
+26.4 +23.7 85 +36 +36 очень
душно
1013.3 1013.0
06 12.09 ЮВ 6
{12}
30 км 9/3 450 м
[Cu Sc Ci sp]
+28.2 +24.1 78 +39 +42 очень
душно
1014.9 1014.6 +25.8
09 12.09 ЮВ 6
{13}
30 км 9/5 600 м
[Cu Sc Ci sp]
+28.0 +23.7 77 +38 +42 очень
душно
1013.2 1012.9
12 12.09 ЮВ 6
{13}
30 км 8/3 480 м
[Cu med, cong Ci sp]
+27.6 +23.9 80 +38 +40 очень
душно
1011.6 1011.3
15 12.09 ЮВ 7
{11}
20 км 8/4 450 м
[Cu Sc Ci sp]
+26.6 +24.1 86 +37 +37 очень
душно
1013.2 1012.9
18 12.09 ЮВ 6
{11}
10 км 6/4 420 м
[Cu med, cong Ac lent]
+26.2 +24.3 89 +36 +36 очень
душно
1014.7 1014.4 +29.4
21 12.09 ЮВ 6
{11}
40 км 6/4 630 м
[Cu hum Ci fib]
+26.1 +23.8 87 +36 +36 очень
душно
1013.8 1013.5
00 13.09 ЮВ 5
{9}
25 км 9/6 600 м
[Cu med, cong Ci fib]
+26.1 +24.0 88 +36 +36 очень
душно
1013.0 1012.7
03 13.09 ЮВ 6
{10}
20 км 5/4 420 м
[Cu med, cong Ci sp]
+26.4 +23.7 85 +36 +36 очень
душно
1014.3 1014.0
06 13.09 ЮВ 7
{10}
40 км 8/5 660 м
[Cu Sc Ac trans Ci sp]
+28.4 +23.9 77 +39 +41 очень
душно
1014.7 1014.4 +26.0
09 13.09 ЮВ 7
{10}
40 км 9/5 660 м
[Cu Sc Ac trans Ci sp]
+29.6 +24.6 75 +42 +44 опасность
перегрева
1012.8 1012.5
12 13.09 ЮВ 6
{11}
35 км 8/6 600 м
[Cu Sc Ac trans Ci sp]
+28.2 +24.1 78 +39 +40 очень
душно
1011.5 1011.2
15 13.09 ЮВ 6
{12}
35 км 9/5 600 м
[Cu med, cong Ci sp]
+26.8 +24.1 85 +37 +37 очень
душно
1012.8 1012.5
18 13.09 ЮВ 7
{12}
30 км 8/3 420 м
[Cu med, cong Ci fib]
+26.3 +23.6 85 +36 +36 очень
душно
1014.4 1014.1 +29.8
21 13.09 ЮВ 6
{10}
30 км 8/6 450 м
[Cu med, cong Ci fib]
+26.3 +23.8 86 +36 +36 очень
душно
1012.9 1012.6
00 14.09 ЮВ 5
{9}
<100 м 8/8 400 м
[Cu med, cong]
+26.0 +23.7 87 +35 +35 очень
душно
1012.2 1011.9
03 14.09 ЮВ 6
{9}
30 км 6/5 420 м
[Cu Sc Ac lent Ci sp]
+26.3 +23.8 86 +36 +36 очень
душно
1013.3 1013.0
06 14.09 ЮВ 6
{9}
50 км 5/5 540 м
[Cu med, cong Ac lent Ci sp]
+28.2 +24.7 81 +40 +43 очень
душно
1014.7 1014.4 +26.0
09 14.09 ЮВ 6
{10}
50 км 8/5 600 м
[Cu med, cong Ci sp]
+29.0 +24.7 78 +41 +45 опасность
перегрева
1012.7 1012.4
12 14.09 ЮВ 7
{13}
40 км 5/4 600 м
[Cu med, cong Ci sp]
+27.9 +23.8 78 +38 +39 очень
душно
1011.7 1011.4
15 14.09 ЮВ 5
{12}
20 км слаб. ливневой дождь 8/5 540 м
[Cu Sc Ci sp]
+26.0 +23.7 87 +35 +35 очень
душно
1013.3 1013.0
18 14.09 ЮВ 6
{12}
15 км {ливн. осадки} 9/8 570 м
[Cu med, cong Ac lent Ci sp]
+26.5 +24.2 87 +37 +37 очень
душно
1014.2 1013.9 +29.9 0.0
21 14.09 ЮВ 7
{12}
20 км в посл. час ливневой дождь 9/8 420 м
[Cu med, cong Ac trans Ci sp]
+26.1 +23.8 87 +36 +36 очень
душно
1012.6 1012.3
00 15.09 ЮВ 7
{14}
20 км {ливн. осадки} 6/6 360 м
[Cu Sc Ac lent Ci fib]
+26.2 +23.7 86 +36 +36 очень
душно
1011.5 1011.2
03 15.09 ЮВ 5
{13}
20 км в посл. час ливневой дождь 9/8 420 м
[Cu med, cong Ac trans Ci sp]
+25.7 +23.8 89 +35 +35 очень
душно
1012.9 1012.6
06 15.09 ЮВ 4
{15}
40 км {ливн. осадки} 8/6 420 м
[Cu Sc Ac trans]
+28.5 +24.6 79 +40 +43 очень
душно
1014.3 1014.0 +25.4 1
09 15.09 нст 5
{12}
20 км слаб. ливневой дождь 8/8 420 м
[Cu Sc Ac trans]
+27.0 +24.9 88 +39 +41 очень
душно
1012.1 1011.8
12 15.09 ЮВ 5
{14}
30 км {ливн. осадки} 5/5 480 м
[Cu Sc Ac trans Ci fib]
+27.8 +24.3 81 +39 +41 очень
душно
1011.5 1011.2
15 15.09 Ю 5
{10}
40 км 8/6 360 м
[Cu Sc Ac trans Ci]
+26.4 +23.7 85 +36 +36 очень
душно
1012.5 1012.2
18 15.09 ЮВ 5
{10}
10 км слаб. ливневой дождь 9/6 600 м
[Cu Sc Ci sp]
+25.6 +24.4 93 +36 +36 очень
душно
1013.1 1012.8 +29.3 3
21 15.09 ЮВ 5
{10}
10 км 9/6 600 м
[Cu Sc Ac lent Ci sp]
+26.0 +24.1 89 +36 +36 очень
душно
1011.7 1011.4
00 16.09 ЮВ 4
{11}
30 км 9/6 600 м
[Cu Sc Ac lent Ci sp]
+25.8 +24.1 90 +36 +36 очень
душно
1010.8 1010.5
03 16.09 ЮВ 6
{13}
50 км в посл. час ливневой дождь 9/5 360 м
[Cu Sc Ac lent Ci sp]
+26.1 +24.2 89 +36 +36 очень
душно
1012.4 1012.1
06 16.09 ЮВ 7
{10}
30 км в посл. час ливневой дождь 9/8 660 м
[Cu med, cong Ac trans Ci fib]
+26.8 +24.3 86 +37 +38 очень
душно
1012.6 1012.3 +25.3 3
09 16.09 ЮВ 5
{10}
30 км {ливн. осадки} 9/6 720 м
[Cu med, cong Ac trans Ci fib]
+29.1 +25.2 80 +42 +45 опасность
перегрева
1011.1 1010.8
12 16.09 ЮВ 6
{10}
30 км {ливн. осадки} 9/6 660 м
[Cu med, cong Ac trans Ci fib]
+27.6 +24.5 83 +39 +40 очень
душно
1010.0 1009.7
15 16.09 Ю 5
{10}
30 км 9/8 720 м
[Cu med, cong Ac trans Ci sp]
+26.9 +24.2 85 +37 +37 очень
душно
1011.4 1011.1
18 16.09 ЮВ 4
{9}
30 км 6/6 540 м
[Cu Sc Ac lent]
+26.6 +24.1 86 +37 +37 очень
душно
1012.6 1012.3 +30.0 0.0
21 16.09 Ю 3
{9}
30 км 6/4 600 м
[Cu med, cong Ac trans Ci fib]
+26.2 +24.1 88 +36 +36 очень
душно
1011.3 1011.0
00 17.09 ЮВ 4
{12}
40 км {ливн. осадки} 9/8 300 м
[Cb cap Ac trans]
+25.5 +24.0 91 +35 +35 очень
душно
1010.1 1009.8
03 17.09 ЮВ 4
{9}
60 км в посл. час ливневой дождь 8/5 360 м
[Cu Sc Ac trans Ci sp]
+26.0 +23.5 86 +35 +35 очень
душно
1011.1 1010.8
06 17.09 ЮВ 6
{11}
8000 м ливневой дождь 9/6 300 м
[Cb cap Ac As]
+26.2 +24.6 91 +37 +38 очень
душно
1012.3 1012.0 +25.2 0.9
09 17.09 ЮВ 8
{15}
5000 м сильн. ливневой дождь 10/10 240 м
[Cu med, cong]
+24.9 +23.9 94 +34 +34 очень
душно
1010.6 1010.3
12 17.09 ЮВ 5
{15}
30 км {ливн. осадки} 9/6 360 м
[Cb cap Ac As]
+27.0 +24.3 85 +38 +38 очень
душно
1009.2 1008.9
15 17.09 ЮВ 5
{12}
15 км слаб. ливневой дождь 9/6 300 м
[Cb cap Ac As]
+26.0 +24.3 90 +36 +36 очень
душно
1010.4 1010.1
18 17.09 ЮВ 6
{11}
25 км {дождь} 9/6 300 м
[Frnb Ac As Ci sp]
+26.3 +24.7 91 +37 +37 очень
душно
1011.6 1011.3 +28.3 12
21 17.09 ЮВ 5
{11}
20 км слаб. дождь 9/8 240 м
[St Ac As]
+25.2 +24.2 94 +35 +35 очень
душно
1010.1 1009.8
00 18.09 ЮВ 5
{12}
40 км {ливн. осадки} 8/4 660 м
[Cu med, cong Ac und]
+25.3 +23.9 92 +35 +35 очень
душно
1010.1 1009.8
03 18.09 ЮВ 7
{12}
25 км слаб. ливневой дождь 9/8 300 м
[Frnb Ac As Ci ing]
+25.8 +24.1 90 +36 +36 очень
душно
1011.3 1011.0
06 18.09 ЮВ 7
{12}
30 км в посл. час ливневой дождь 9/8 270 м
[Cb cap Ac lent Ci ing]
+25.7 +23.6 88 +35 +35 очень
душно
1013.1 1012.8 +24.6 29
09 18.09 ЮВ 7
{14}
30 км слаб. ливневой дождь 9/8 300 м
[Cb cap Ac lent Ci ing]
+25.7 +23.6 88 +35 +36 очень
душно
1011.2 1010.9
12 18.09 ЮВ 8
{14}
30 км 9/8 330 м
[Cu Sc Ac lent Ci ing]
+26.2 +23.5 85 +36 +36 очень
душно
1010.6 1010.3
15 18.09 ЮВ 6
{12}
20 км в посл. час ливневой дождь 9/6 300 м
[Cu Sc Ac As]
+25.4 +22.7 85 +33 +33 очень
душно
1012.9 1012.6
18 18.09 ЮВ 5
{11}
15 км слаб. ливневой дождь 9/6 300 м
[Cb cap As op]
+24.4 +22.5 89 +32 +32 очень
душно
1014.2 1013.9 +27.6 2
21 18.09 ЮВ 6
{12}
15 км слаб. ливневой дождь 9/5 540 м
[Cb cap As op]
+25.5 +23.2 87 +34 +34 очень
душно
1012.3 1012.0

 

Местоположение метеостанции Сейшелы (Сейшелы): широта -4.67 долгота 55.52 высота над уровнем моря 3 м.

В архиве по умолчанию представлена погода на Сейшелах за последнюю неделю. Архивные данные за месяц целиком и за предыдущие месяцы, начиная с января 2011 года, Вы можете получить, выбрав интересующий диапазон дат из раскрывающегося списка и нажав кнопку "Ввод!".


*Определитесь, кто Вы:
робот инопланетянин человек

Внимание! Время в таблицах - всемирное. Для получения местного времени необходимо прибавить поправку, которая равна 4 ч.

Смотрите также архив погоды в соседних городах и на ближайших метеорологических станциях:

Погода на Агалега (Маврикий) (655 км)
Погода в Анциранане (Мадагаскар) (1094 км)
Погода на Острове Глорьёз (Реюньон) (1190 км)
Погода в Самбаве (Мадагаскар) (1219 км)
Погода в Серже-Фролоу (Реюньон) (1243 км)
Погода в Аэропорту Fascene (Мадагаскар) (1244 км)
Погода в Анталахе (Мадагаскар) (1274 км)
Погода в Могадишо (Сомали) (1354 км)
Погода в Сент-Брендоне (Маврикий) (1385 км)
Погода в Анцухихи (Мадагаскар) (1404 км)

Пояснения к столбцам:

Ветер - указаны скорость ветра в м/с - средняя за 10 мин, порывы в срок и между сроками (в фигурных скобках) и направление, откуда дует ветер: С - северный, СВ - северо-восточный, В - восточный, ЮВ - юго-восточный, Ю - южный, ЮЗ - юго-западный, З - западный, СЗ - северо-западный.
Видимость - горизонтальная дальность видимости в метрах или километрах. При видимости от 1 до 10 км при отсутствии осадков обычно наблюдается дымка, при ухудшении видимости до 1 км и менее - туман. В сухую погоду видимость может ухудшаться дымом, пылью или мглою.
Явления - указаны атмосферные явления, наблюдавшиеся в срок или в последний час перед сроком; фигурными скобками обозначены явления, наблюдавшиеся между сроками (за 1-3 часа до срока); квадратными скобками обозначены град или гололедные отложения с указанием их диаметра в мм.
Облачность - указаны через наклонную черту общая и нижняя облачность в баллах и высота нижней границы облаков в метрах; квадратными скобками обозначены формы облаков: Ci - перистые, Cs - перисто-слоистые, Cc - перисто-кучевые, Ac - высококучевые, As - высокослоистые, Sc - слоисто-кучевые, Ns - слоисто-дождевые, Cu - кучевые, Cb - кучево-дождевые. Подробнее классификацию облаков см. в Атласе облаков (PDF).
T - Температура воздуха - температура, измеренная на высоте 2 м над землей.
Td - Температура точки росы - температура, при понижении до которой содержащийся в воздухе водяной пар достигнет насыщения.
f - Относительная влажность воздуха - влажноcть воздуха, измеренная на высоте 2 м над землей.
Te - Эффективная температура - температура, которую ощущает одетый по сезону человек в тени. Характеристика душности погоды. При расчете учитывается влияние влажности воздуха и скорости ветра на теплоощущения человека.
Tes - Эффективная температура на солнце - температура, которую ощущает человек, с поправкой на солнечный нагрев. Характеристика знойности погоды. Зависит от высоты солнца над горизонтом, облачности и скорости ветра. Ночью, в пасмурную погоду, а также при ветре 12 м/с и более поправка равна нулю.
P - Атмосферное давление - приведенное к уровню моря атмосферное давление.
Po - Атмосферное давление - измеренное на уровне метеостанции атмосферное давление.
Tmin - Минимальная температура - минимум температуры воздуха на высоте 2 м над землей.
Tmax - Максимальная температура - максимум температуры воздуха на высоте 2 м над землей.
R - Количество осадков - Количество выпавших осадков за период времени, мм. При наведении курсора мыши на число - период времени, за который выпало указанное количество осадков.
R24 - Количество осадков - Количество выпавших осадков за 24 часа, мм.
S - Снежный покров - Высота снежного покрова, см. При наведении курсора мыши на число - состояние снежного покрова и степень покрытия местности в баллах.